Showing default

HAWK-11C, 62381

Orbit data source: Space-Track

HAWK-11C, 62381 is a payload satellite owned by HawkEye 360 (US) in LEO that was launched on Sat, 21 Dec 2024 UTC via an FALCON 9 launch vehicle from the Air Force Western Test Range (AFWTR). Payload-class satellites include a variety of spacecraft equipped with specific instruments for various scientific and technological missions. These include communications satellites like Starlink; space stations such as the ISS; scientific satellites like the Hubble; Earth observation satellites from companies like Planet Labs, Umbra, and HawkEye 360; GPS; miniature CubeSats for education and research; and military/defense satellites.

Loading next visibility...
Identifier
62381, 2024-247E
Orbit
LEO
Country
Flag of USUS
Related business
Manufacturer
UTIAS-SFL
Mission
Operational Commercial Sigint
Bus & Motor
HAWK2G, Unknown motor
Mass
31 kg wet, 30 kg dry
Launch date (UTC)
2024-12-21 (10 months ago)
Launch vehicle
FALCON 9
Launch site
Air Force Western Test Range (AFWTR)
Object type
Payload
Rocket body
Debris
Shape & HBR
Box + 2 Pan, 1.0 m
Radar Cross Section
0.240 m², Medium (>0.1 m² and < 1m²)

Expand to show TLE details & history
Last TLE update: 5 hours ago

TLE from 5 hours ago
0 HAWK-11C
1 62381U 24247E   25298.26657122  .00010048  00000-0  39383-3 0  9998
2 62381  45.0076 132.9854 0005474 238.1052 121.9298 15.26026598 47060
Epoch: 2025-10-25T06:23Z
TLE epoch observation values (Epoch: 2025-10-25T06:23:51.753Z)
Latitude
-0.00004°
Longitude
3.12014°
Altitude
489.693 km
Speed
7.621 km/s
True Right ascension
08h 51m 56s
True Declination
0° 00' 00"
Sunlit
Object was in daylight at epoch
Visualization orbit readout
Latitude
Unknown
Longitude
Unknown
Altitude
Unknown
Speed
Unknown
Apparent Right ascension
Unknown
Apparent Declination
Unknown
Sunlit
N/A
Visualization observer readout
Local Sidereal Time
06:19:45
Azimuth
Unknown
Elevation
Unknown
Doppler factor
Unknown
Orbital elements
Apogee altitude
493.071 km
Perigee altitude
485.552 km
Semi-major axis
6,867.448 km
Eccentricity
0.00055
Inclination
45.0076°
RAAN
132.9854°
Arg. of periapsis
238.1052°
True anomaly
121.98302°
Mean anomaly
121.9298°
Eccentric anomaly
121.95641°
Mean motion
3.81373 °/min
Orbital period
94.4 mins
BSTAR
0.00039383
Loading maneuver chart data...
Computing Atmospheric mass density...
Loading historical data...
Loading historical data...
Loading historical data...
Loading historical data...
Loading historical data...
Loading historical data...
Loading historical data...

Documentation

Showing up to 5 results
|